1504792800.78,9004,16.63,73476.5,4.25,-35.13,-34.95,0,*4C
1504792802.03,9005,16.63,73478.3,4.25,-37.21,-37.03,0,*42
1504792803.25,9006,16.63,73474.5,4.23,-38.17,-37.99,0,*4E
1504792804.47,9007,16.63,73464.8,4.23,-36.55,-36.37,0,*42
1504792805.71,9008,16.63,73468.3,4.23,-36.61,-36.25,0,*49
1504792806.93,9009,16.63,73468.5,4.25,-36.97,-36.73,0,*44
1504792808.17,9010,16.63,73466.0,4.25,-36.37,-36.07,0,*45
1504792809.42,9011,16.63,73462.3,4.25,-36.07,-35.83,0,*48
1504792810.67,9012,16.63,73460.5,4.25,-36.25,-36.01,0,*42
1504792811.92,9013,16.63,73466.8,4.25,-36.01,-35.83,0,*4C
1504792813.13,9014,16.63,73468.3,4.27,-34.77,-34.35,0,*46
1504792814.33,9015,16.63,73472.0,4.29,-34.47,-34.25,0,*4B
1504792815.52,9016,16.63,73468.3,4.29,-33.55,-33.21,0,*4F
1504792816.77,9017,16.63,73472.5,4.31,-33.67,-33.49,0,*48
1504792818.0,9018,16.63,73478.3,4.35,-34.71,-34.47,0,*4A
1504792819.24,9019,16.63,73474.3,4.35,-36.55,-36.37,0,*4A
1504792820.47,9020,16.63,73474.5,4.33,-35.35,-35.29,0,*4F
1504792821.71,9021,16.63,73476.5,4.35,-35.65,-35.29,0,*4D
1504792822.94,9022,16.63,73486.8,4.39,-36.01,-35.89,0,*49
1504792824.16,9023,16.63,73480.3,4.35,-38.55,-38.55,0,*47
1504792825.35,9024,16.63,73474.5,4.33,-37.45,-37.27,0,*42
1504792826.63,9025,16.63,73472.3,4.31,-36.61,-36.25,0,*45
1504792827.83,9026,16.63,73464.5,4.29,-35.77,-35.71,0,*49
1504792829.08,9027,16.63,73466.5,4.29,-36.37,-36.13,0,*48
1504792830.32,9028,16.63,73464.3,4.27,-36.37,-36.25,0,*4C
1504792831.53,9029,16.63,73464.8,4.27,-36.37,-36.19,0,*42
1504792832.75,9030,16.63,73462.8,4.29,-36.55,-36.37,0,*4C
1504792833.96,9031,16.63,73462.8,4.27,-36.43,-36.37,0,*44
1504792835.16,9032,16.63,73460.5,4.27,-36.07,-35.89,0,*41
1504792836.38,9033,16.63,73464.0,4.27,-35.59,-35.41,0,*4C
1504792837.61,9034,16.63,73464.3,4.27,-35.65,-35.41,0,*44
1504792838.79,9035,16.63,73464.5,4.27,-35.13,-34.89,0,*41
1504792840.0,9036,16.63,73464.3,4.29,-34.71,-34.47,0,*4B
1504792841.2,9037,16.63,73466.8,4.29,-36.73,-36.73,0,*4F
1504792842.45,9038,16.63,73464.5,4.29,-37.09,-36.91,0,*40
1504792843.67,9039,16.63,73464.3,4.27,-36.91,-36.73,0,*43
1504792844.85,9040,16.63,73470.0,4.27,-35.13,-34.89,0,*43
1504792846.07,9041,16.63,73470.0,4.27,-34.47,-34.35,0,*45
1504792847.29,9042,16.63,73468.3,4.29,-34.07,-33.77,0,*4D
1504792848.49,9043,16.63,73466.0,4.29,-33.55,-33.21,0,*4F
1504792849.69,9044,16.63,73466.3,4.29,-33.55,-33.21,0,*48
1504792850.96,9045,16.63,73468.3,4.31,-33.27,-32.79,0,*49
1504792852.21,9046,16.63,73470.3,4.33,-32.63,-32.07,0,*40
1504792853.46,9047,16.63,73472.3,4.39,-32.13,-31.51,0,*4C
1504792854.7,9048,16.63,73472.3,4.39,-32.75,-32.35,0,*42
1504792855.96,9049,16.63,73472.0,4.43,-32.29,-31.73,0,*46
1504792857.2,9050,16.63,73474.3,4.43,-31.73,-31.33,0,*46
1504792858.43,9051,16.63,73474.8,4.47,-32.69,-32.35,0,*4E
1504792859.68,9052,16.63,73474.8,4.47,-32.57,-32.19,0,*4E
1504792860.96,9053,16.63,73472.8,4.51,-33.73,-33.43,0,*41
1504792862.18,9054,16.69,73472.3,4.49,-34.19,-33.95,0,*4F
1504792863.42,9055,16.63,73470.5,4.51,-33.77,-33.55,0,*44
1504792864.66,9056,16.63,73468.5,4.51,-31.79,-31.39,0,*43
1504792865.88,9057,16.63,73470.5,4.55,-31.33,-31.05,0,*47
1504792867.14,9058,16.63,73468.8,4.57,-30.95,-30.77,0,*43
1504792868.38,9059,16.63,73460.3,4.61,-31.51,-31.51,0,*4B
1504792869.63,9060,16.63,73462.8,4.61,-32.19,-31.85,0,*47
1504792870.86,9061,16.63,73466.3,4.65,-31.73,-31.45,0,*41
1504792872.08,9062,16.63,73464.0,4.65,-31.45,-31.23,0,*47
1504792873.36,9063,16.63,73464.0,4.67,-31.23,-30.89,0,*45
1504792874.62,9064,16.63,73464.0,4.69,-30.95,-30.77,0,*41
1504792875.87,9065,16.63,73462.8,4.73,-31.11,-30.95,0,*4A
1504792877.09,9066,16.63,73462.3,4.73,-31.05,-30.73,0,*44
1504792878.34,9067,16.63,73462.0,4.75,-30.61,-30.33,0,*44
1504792879.55,9068,16.63,73460.5,4.79,-30.45,-30.11,0,*41
1504792880.81,9069,16.63,73460.8,4.81,-31.11,-30.77,0,*47
1504792882.05,9070,16.63,73460.8,4.85,-31.39,-31.11,0,*40
1504792883.31,9071,16.63,73466.5,4.85,-31.11,-30.73,0,*4E
1504792884.55,9072,16.63,73462.8,4.87,-30.89,-30.45,0,*4A
1504792885.8,9073,16.63,73460.8,4.87,-30.45,-30.17,0,*4C
1504792887.01,9074,16.63,73466.5,4.93,-30.45,-30.11,0,*48
1504792888.23,9075,16.69,73468.8,4.95,-30.45,-30.05,0,*4A
1504792889.45,9076,16.63,73466.8,4.95,-30.61,-30.45,0,*4B
1504792890.69,9077,16.63,73468.0,4.99,-31.57,-31.45,0,*43
1504792891.93,9078,16.63,73472.5,4.99,-31.57,-31.57,0,*4F
1504792893.18,9079,16.63,73470.5,4.97,-32.19,-32.01,0,*49
1504792894.41,9080,16.63,73474.5,4.99,-31.61,-31.45,0,*4E
1504792895.65,9081,16.63,73468.8,5.01,-31.39,-31.33,0,*43
1504792896.87,9082,16.63,73474.0,5.03,-31.33,-31.11,0,*48
1504792898.1,9083,16.63,73476.8,5.03,-31.33,-31.39,0,*43
1504792899.31,9084,16.69,73476.8,5.07,-31.29,-30.95,0,*4C
1504792900.56,9085,16.63,73478.0,5.09,-32.01,-31.85,0,*4A
1504792901.81,9086,16.63,73474.3,5.09,-31.67,-31.61,0,*40
1504792903.08,9087,16.63,73476.3,5.09,-31.61,-31.61,0,*47
1504792904.27,9088,16.63,73474.8,5.11,-34.07,-34.07,0,*41
1504792905.52,9089,16.63,73482.0,5.11,-33.77,-33.77,0,*40
1504792906.74,9090,16.63,73480.0,5.09,-33.37,-33.21,0,*46
1504792907.98,9091,16.63,73482.8,5.09,-34.47,-34.35,0,*45
1504792909.23,9092,16.63,73476.5,5.07,-35.07,-35.07,0,*4D
1504792910.43,9093,16.63,73474.5,5.07,-36.01,-35.71,0,*48
1504792911.7,9094,16.63,73474.0,5.01,-36.25,-36.25,0,*4D
1504792912.91,9095,16.63,73468.8,4.99,-36.19,-36.01,0,*45
1504792914.15,9096,16.63,73462.8,4.97,-35.83,-36.07,0,*4E
1504792915.4,9097,16.63,73460.3,4.97,-36.73,-36.61,0,*43
1504792916.69,9098,16.63,73462.3,4.93,-35.95,-35.95,0,*4B
1504792917.93,9099,16.63,73460.3,4.91,-36.07,-35.83,0,*47
1504792919.13,9100,16.63,73464.8,4.89,-36.55,-36.55,0,*40
1504792920.35,9101,16.63,73466.3,4.85,-37.33,-36.91,0,*44
1504792921.55,9102,16.63,73466.8,4.81,-39.91,-39.85,0,*4F
1504792922.77,9103,16.63,73464.0,4.79,-37.57,-37.57,0,*4C
1504792924.0,9104,16.63,73460.8,4.75,-36.73,-36.55,0,*43
1504792925.27,9105,16.63,73460.8,4.75,-36.13,-35.83,0,*4C
1504792926.53,9106,16.63,73462.0,4.75,-35.65,-35.41,0,*43
1504792927.76,9107,16.63,73458.0,4.73,-36.19,-35.83,0,*42
1504792928.98,9108,16.63,73462.0,4.73,-36.13,-35.77,0,*4C
1504792930.22,9109,16.63,73460.5,4.73,-36.37,-36.13,0,*4A
1504792931.42,9110,16.63,73462.0,4.69,-36.85,-36.85,0,*4F
1504792932.61,9111,16.63,73462.0,4.69,-37.03,-37.03,0,*4E
1504792933.86,9112,16.63,73460.0,4.67,-36.91,-36.73,0,*4F
1504792935.12,9113,16.63,73466.8,4.63,-39.29,-39.41,0,*48
1504792936.32,9114,16.63,73466.5,4.57,-37.33,-37.33,0,*46
1504792937.52,9115,16.63,73460.0,4.57,-36.19,-35.89,0,*4D
1504792938.74,9116,16.63,73460.8,4.55,-35.17,-35.01,0,*41
1504792939.99,9117,16.69,73462.3,4.55,-35.77,-35.41,0,*42
1504792941.26,9118,16.63,73460.8,4.55,-34.65,-34.31,0,*49
1504792942.48,9119,16.63,73464.0,4.57,-35.29,-35.07,0,*47
1504792943.69,9120,16.69,73466.3,4.57,-35.29,-35.07,0,*4D
1504792944.95,9121,16.63,73464.5,4.55,-33.73,-33.37,0,*42
1504792946.2,9122,16.63,73466.8,4.57,-34.01,-33.77,0,*45
1504792947.41,9123,16.63,73464.3,4.57,-34.59,-34.35,0,*48
1504792948.66,9124,16.63,73466.8,4.57,-34.53,-34.19,0,*4B
1504792949.88,9125,16.63,73468.8,4.57,-33.67,-33.43,0,*42
1504792951.11,9126,16.63,73468.0,4.61,-32.75,-32.51,0,*44
1504792952.33,9127,16.63,73468.5,4.63,-32.35,-32.13,0,*45
1504792953.57,9128,16.63,73470.5,4.65,-33.43,-33.27,0,*4A
1504792954.79,9129,16.63,73474.0,4.65,-33.95,-33.73,0,*41
1504792955.99,9130,16.69,73476.3,4.65,-32.69,-32.51,0,*4A
1504792957.21,9131,16.69,73472.3,4.65,-34.07,-33.89,0,*41
1504792958.41,9132,16.63,73464.5,4.65,-33.03,-32.69,0,*4E
1504792959.6,9133,16.69,73472.0,4.69,-32.01,-31.67,0,*4D
1504792960.83,9134,16.63,73464.8,4.69,-32.75,-32.39,0,*41
1504792962.07,9135,16.69,73464.5,4.73,-33.27,-33.09,0,*4F
1504792963.29,9136,16.69,73468.3,4.73,-32.13,-31.95,0,*4D
1504792964.51,9137,16.63,73460.8,4.73,-32.29,-31.79,0,*47
1504792965.76,9138,16.63,73460.8,4.75,-32.01,-31.61,0,*4D
1504792966.98,9139,16.63,73458.8,4.77,-31.79,-31.39,0,*4F
1504792968.2,9140,16.63,73456.0,4.77,-31.51,-31.01,0,*40
1504792969.46,9141,16.69,73462.5,4.79,-31.57,-31.29,0,*43
1504792970.71,9142,16.63,73460.0,4.79,-31.73,-31.45,0,*4C
1504792971.94,9143,16.69,73460.8,4.81,-31.17,-30.77,0,*48
1504792973.22,9144,16.63,73460.8,4.87,-31.23,-30.89,0,*4F
1504792974.43,9145,16.63,73458.8,4.87,-32.35,-32.13,0,*4B
1504792975.69,9146,16.63,73456.8,4.87,-31.85,-31.45,0,*40
1504792976.93,9147,16.69,73462.5,4.91,-31.01,-30.61,0,*4D
1504792978.17,9148,16.69,73460.8,4.91,-31.39,-31.01,0,*4E
1504792979.42,9149,16.69,73462.3,4.95,-30.95,-30.55,0,*4C
1504792980.68,9150,16.69,73458.3,4.93,-31.39,-31.17,0,*42
1504792981.9,9151,16.63,73454.0,4.95,-32.39,-32.29,0,*48
1504792983.11,9152,16.63,73452.0,4.97,-32.35,-32.13,0,*4C
1504792984.38,9153,16.63,73448.8,4.97,-31.85,-31.57,0,*46
1504792985.61,9154,16.63,73452.8,4.99,-31.29,-30.89,0,*4B
1504792986.85,9155,16.63,73452.5,5.01,-31.01,-30.51,0,*45
1504792988.04,9156,16.63,73452.3,5.03,-31.33,-31.01,0,*41
1504792989.29,9157,16.63,73448.5,5.03,-31.91,-31.57,0,*4B
1504792990.48,9158,16.69,73452.0,5.07,-31.67,-31.33,0,*4B
1504792991.7,9159,16.63,73448.3,5.07,-31.61,-31.33,0,*4C
1504792992.9,9160,16.69,73454.3,5.07,-31.79,-31.45,0,*4E
1504792994.15,9161,16.63,73456.8,5.09,-32.75,-32.39,0,*46
1504792995.37,9162,16.69,73458.8,5.09,-32.01,-31.67,0,*4E
1504792996.62,9163,16.63,73456.5,5.09,-32.13,-31.85,0,*40
1504792997.83,9164,16.63,73456.3,5.09,-32.13,-31.79,0,*44
1504792999.06,9165,16.63,73460.0,5.11,-31.23,-30.83,0,*48
1504793000.3,9166,16.63,73460.8,5.13,-31.17,-30.95,0,*49
1504793001.53,9167,16.63,73458.5,5.15,-31.23,-31.17,0,*42
1504793002.77,9168,16.63,73458.5,5.15,-32.63,-32.63,0,*4A
1504793004.02,9169,16.63,73462.5,5.17,-31.79,-31.61,0,*40
1504793005.25,9170,16.69,73462.0,5.15,-32.01,-31.85,0,*4C
1504793006.49,9171,16.63,73462.5,5.17,-31.17,-31.11,0,*46
1504793007.75,9172,16.69,73468.0,5.19,-31.11,-30.77,0,*4C
1504793009.0,9173,16.69,73466.8,5.19,-30.95,-30.73,0,*44
1504793010.23,9174,16.63,73462.0,5.21,-30.67,-30.33,0,*41
1504793011.47,9175,16.63,73464.0,5.25,-30.77,-30.51,0,*41
1504793012.72,9176,16.63,73460.5,5.25,-30.77,-30.51,0,*42
1504793013.94,9177,16.69,73464.5,5.25,-30.61,-30.27,0,*45
1504793015.15,9178,16.63,73460.0,5.29,-30.83,-30.55,0,*4F
1504793016.38,9179,16.63,73462.8,5.31,-31.45,-31.01,0,*4C
1504793017.6,9180,16.63,73460.8,5.31,-31.33,-31.01,0,*4B
1504793018.81,9181,16.69,73460.0,5.31,-32.51,-32.23,0,*4E
1504793020.03,9182,16.63,73458.5,5.31,-31.29,-31.01,0,*42
1504793021.26,9183,16.63,73460.3,5.33,-31.11,-30.67,0,*4B
1504793022.54,9184,16.63,73462.0,5.35,-30.77,-30.39,0,*40
1504793023.78,9185,16.63,73462.5,5.35,-30.73,-30.23,0,*4E
1504793025.0,9186,16.63,73460.5,5.37,-30.33,-30.01,0,*4B
1504793026.21,9187,16.69,73460.8,5.41,-30.61,-30.11,0,*4D
1504793027.43,9188,16.69,73458.5,5.41,-30.95,-30.45,0,*48
1504793028.68,9189,16.63,73458.5,5.43,-30.73,-30.45,0,*43
1504793029.91,9190,16.69,73460.3,5.41,-30.55,-30.05,0,*49
1504793031.18,9191,16.63,73462.8,5.43,-30.89,-30.39,0,*44
1504793032.39,9192,16.63,73462.8,5.49,-30.73,-30.27,0,*47
1504793033.6,9193,16.63,73462.0,5.45,-30.55,-30.11,0,*4B
1504793034.81,9194,16.63,73460.0,5.49,-31.39,-31.05,0,*4F
1504793036.03,9195,16.69,73464.3,5.49,-31.23,-31.05,0,*45
1504793037.24,9196,16.69,73460.8,5.51,-31.01,-30.45,0,*4A
1504793038.49,9197,16.63,73462.0,5.51,-31.33,-31.11,0,*4A
1504793039.74,9198,16.69,73464.8,5.51,-31.11,-30.67,0,*45
1504793040.99,9199,16.63,73460.8,5.53,-31.11,-30.89,0,*46
1504793042.21,9200,16.69,73464.3,5.53,-30.45,-30.17,0,*42
1504793043.43,9201,16.69,73462.0,5.59,-30.17,-29.83,0,*4B
1504793044.65,9202,16.69,73460.0,5.59,-30.83,-30.55,0,*46
1504793045.9,9203,16.63,73460.3,5.57,-30.89,-30.67,0,*42
1504793047.13,9204,16.63,73458.5,5.61,-30.51,-30.27,0,*41
1504793048.34,9205,16.63,73462.5,5.61,-31.67,-31.33,0,*40
1504793049.58,9206,16.63,73466.3,5.61,-31.67,-31.51,0,*47
1504793050.82,9207,16.63,73466.3,5.63,-32.19,-31.91,0,*42
1504793052.06,9208,16.63,73464.5,5.61,-31.51,-31.33,0,*48
1504793053.32,9209,16.69,73464.8,5.61,-32.19,-31.85,0,*4B
1504793054.56,9210,16.63,73464.3,5.63,-33.31,-32.97,0,*4A
1504793055.83,9211,16.69,73466.8,5.61,-33.09,-32.63,0,*49
1504793057.06,9212,16.69,73468.5,5.61,-32.63,-32.35,0,*44
1504793058.31,9213,16.69,73464.8,5.61,-32.75,-32.51,0,*40
1504793059.58,9214,16.69,73470.3,5.61,-31.73,-31.39,0,*4F
1504793060.79,9215,16.69,73468.8,5.61,-31.67,-31.17,0,*47
1504793062.01,9216,16.63,73466.0,5.61,-31.17,-30.83,0,*4F
1504793063.25,9217,16.69,73466.3,5.61,-30.61,-30.23,0,*44
1504793064.46,9218,16.63,73466.5,5.61,-32.51,-32.23,0,*48
1504793065.7,9219,16.63,73468.5,5.63,-32.07,-31.57,0,*48
1504793066.91,9220,16.63,73470.0,5.63,-30.61,-30.27,0,*46
1504793068.18,9221,16.69,73470.5,5.69,-30.51,-30.01,0,*4A
1504793069.4,9222,16.63,73468.3,5.67,-31.05,-30.77,0,*46
1504793070.62,9223,16.69,73470.5,5.69,-31.17,-30.83,0,*41
1504793071.87,9224,16.69,73472.5,5.69,-30.83,-30.73,0,*45
1504793073.11,9225,16.63,73468.3,5.73,-32.23,-32.19,0,*49
1504793074.32,9226,16.69,73470.8,5.71,-31.57,-31.29,0,*48
1504793075.53,9227,16.69,73468.0,5.71,-30.67,-30.39,0,*4B
1504793076.79,9228,16.69,73468.0,5.77,-30.39,-30.05,0,*46
1504793078.0,9229,16.69,73472.0,5.73,-31.17,-31.01,0,*4B
1504793079.24,9230,16.69,73474.0,5.73,-30.83,-30.51,0,*4B
1504793080.45,9231,16.69,73472.8,5.73,-30.45,-29.95,0,*40
1504793081.64,9232,16.69,73474.5,5.75,-30.27,-29.95,0,*41
1504793082.88,9233,16.69,73474.3,5.79,-30.51,-30.01,0,*48
1504793084.1,9234,16.69,73472.0,5.79,-31.11,-31.05,0,*4F
1504793085.34,9235,16.69,73474.5,5.79,-31.61,-31.39,0,*46
1504793086.59,9236,16.69,73472.8,5.79,-31.23,-30.89,0,*49
1504793087.81,9237,16.69,73476.0,5.79,-30.73,-30.33,0,*4D
1504793089.07,9238,16.63,73472.0,5.81,-30.89,-30.55,0,*40
1504793090.31,9239,16.63,73474.3,5.81,-31.39,-31.01,0,*4B
1504793091.55,9240,16.69,73478.8,5.83,-31.85,-31.57,0,*43
1504793092.77,9241,16.69,73476.5,5.83,-32.19,-32.01,0,*44
1504793093.99,9242,16.69,73478.8,5.83,-32.57,-32.45,0,*4D
1504793095.23,9243,16.69,73476.3,5.81,-33.15,-32.85,0,*45
1504793096.46,9244,16.69,73476.5,5.81,-32.63,-32.35,0,*49
1504793097.71,9245,16.69,73476.3,5.81,-32.69,-32.45,0,*45
1504793098.97,9246,16.69,73476.0,5.81,-31.91,-31.61,0,*47
1504793100.21,9247,16.69,73472.8,5.81,-31.39,-31.01,0,*42
1504793101.48,9248,16.69,73474.3,5.81,-31.23,-30.89,0,*47
1504793102.7,9249,16.69,73472.8,5.81,-31.29,-31.01,0,*4D
1504793103.94,9250,16.69,73478.5,5.81,-32.07,-31.79,0,*45
1504793105.18,9251,16.69,73478.3,5.83,-32.19,-31.85,0,*4A
1504793106.37,9252,16.69,73474.0,5.83,-31.67,-31.17,0,*48
1504793107.61,9253,16.69,73476.3,5.85,-30.61,-30.27,0,*4A
1504793108.84,9254,16.69,73476.3,5.89,-30.27,-29.83,0,*45
1504793110.06,9255,16.69,73476.5,5.91,-32.35,-31.95,0,*42
1504793111.33,9256,16.69,73476.8,5.89,-31.51,-30.95,0,*48
1504793112.58,9257,16.69,73476.8,5.91,-30.89,-30.55,0,*48
1504793113.83,9258,16.63,73474.5,5.91,-30.55,-30.17,0,*40
1504793115.08,9259,16.69,73476.8,5.93,-30.51,-29.95,0,*45
1504793116.28,9260,16.69,73472.5,5.95,-30.11,-29.57,0,*43
1504793117.51,9261,16.69,73474.8,5.95,-30.01,-29.45,0,*40
1504793118.78,9262,16.69,73472.3,5.97,-30.61,-30.01,0,*4F
1504793120.03,9263,16.69,73470.3,5.99,-30.39,-30.05,0,*49
1504793121.26,9264,16.69,73468.8,5.99,-32.39,-32.07,0,*4C
1504793122.48,9265,16.69,73472.5,5.99,-31.67,-31.11,0,*41
1504793123.75,9266,16.69,73470.8,6.01,-31.23,-30.67,0,*40
1504793125.0,9267,16.69,73470.8,6.01,-32.01,-31.57,0,*40
1504793126.22,9268,16.69,73470.3,6.01,-32.51,-32.13,0,*49
1504793127.5,9269,16.69,73468.3,6.01,-32.45,-31.95,0,*40
1504793128.73,9270,16.69,73466.5,5.99,-32.51,-32.07,0,*47
1504793129.96,9271,16.69,73466.0,5.99,-32.75,-32.23,0,*46
1504793131.18,9272,16.69,73468.3,5.99,-32.19,-31.67,0,*4C
1504793132.39,9273,16.69,73470.5,5.99,-31.67,-31.29,0,*4D
1504793133.62,9274,16.63,73470.5,5.99,-31.17,-30.73,0,*43
1504793134.88,9275,16.69,73472.8,6.03,-31.39,-30.89,0,*4B
1504793136.16,9276,16.69,73474.5,6.01,-32.79,-32.79,0,*40
1504793137.43,9277,16.69,73474.5,6.01,-34.53,-34.19,0,*4F
1504793138.63,9278,16.69,73474.8,5.99,-35.71,-35.47,0,*49
1504793139.88,9279,16.63,73474.3,5.97,-33.09,-32.57,0,*49
1504793141.13,9280,16.63,73472.0,5.97,-33.21,-32.97,0,*49
1504793142.38,9281,16.63,73474.0,5.97,-33.83,-33.49,0,*42
1504793143.63,9282,16.69,73474.8,5.95,-32.75,-32.29,0,*4C
1504793144.89,9283,16.69,73476.8,5.95,-31.85,-31.39,0,*43
1504793146.12,9284,16.69,73472.5,5.95,-31.73,-31.33,0,*47
1504793147.32,9285,16.69,73472.5,5.99,-32.23,-31.79,0,*42
1504793148.57,9286,16.69,73474.8,5.97,-32.63,-32.23,0,*47
1504793149.84,9287,16.69,73476.3,5.97,-32.75,-32.29,0,*4B
1504793151.04,9288,16.69,73478.0,5.99,-32.91,-32.39,0,*41
1504793152.3,9289,16.69,73478.0,5.99,-33.61,-33.31,0,*47
1504793153.52,9290,16.69,73478.5,5.97,-32.57,-32.13,0,*44
1504793154.79,9291,16.63,73470.8,5.97,-32.29,-31.91,0,*45
1504793156.0,9292,16.69,73476.8,5.99,-32.69,-32.23,0,*46
1504793157.25,9293,16.69,73478.0,5.99,-34.19,-33.77,0,*46
1504793158.5,9294,16.69,73480.3,5.97,-35.17,-34.95,0,*4B
1504793159.75,9295,16.69,73478.8,5.97,-35.17,-34.95,0,*4A
1504793160.98,9296,16.69,73480.5,5.93,-34.07,-33.55,0,*46
1504793162.21,9297,16.69,73480.0,5.95,-32.63,-32.23,0,*45
1504793163.44,9298,16.63,73478.0,5.93,-33.03,-32.51,0,*4E
1504793164.64,9299,16.69,73480.5,5.95,-33.55,-33.15,0,*4B
1504793165.87,9300,16.69,73478.5,5.93,-33.55,-33.15,0,*4C
1504793167.13,9301,16.69,73480.0,5.93,-33.37,-32.85,0,*41
1504793168.38,9302,16.69,73482.0,5.93,-33.43,-33.03,0,*4E
1504793169.64,9303,16.69,73482.3,5.93,-33.37,-32.79,0,*40
1504793170.92,9304,16.69,73482.5,5.93,-33.27,-32.85,0,*45
1504793172.15,9305,16.69,73482.3,5.95,-33.67,-33.31,0,*48
1504793173.38,9306,16.69,73478.8,5.91,-32.85,-32.13,0,*43
1504793174.64,9307,16.69,73478.3,5.91,-32.07,-31.61,0,*4E
1504793175.89,9308,16.69,73480.8,5.91,-32.07,-31.91,0,*4E
1504793177.09,9309,16.69,73486.0,5.95,-33.15,-32.91,0,*4A
1504793178.33,9310,16.69,73480.8,5.95,-34.65,-34.47,0,*4F
1504793179.58,9311,16.69,73480.0,5.91,-37.09,-36.79,0,*4C
1504793180.85,9312,16.69,73476.5,5.85,-37.99,-37.99,0,*4C
1504793182.04,9313,16.69,73486.3,5.83,-35.47,-35.13,0,*4A
1504793183.28,9314,16.69,73484.0,5.83,-33.89,-33.49,0,*40
1504793184.52,9315,16.69,73480.3,5.81,-33.15,-32.79,0,*44
1504793185.74,9316,16.69,73480.0,5.81,-33.03,-32.69,0,*41
1504793186.95,9317,16.69,73486.0,5.81,-33.95,-33.37,0,*45
1504793188.19,9318,16.69,73478.8,5.83,-35.65,-35.35,0,*45
1504793189.4,9319,16.69,73478.3,5.81,-36.97,-36.85,0,*40
1504793190.59,9320,16.63,73474.0,5.79,-37.33,-37.15,0,*4A
1504793191.83,9321,16.69,73478.3,5.73,-37.57,-37.99,0,*47
1504793193.04,9322,16.69,73476.3,5.71,-36.67,-36.13,0,*47
1504793194.26,9323,16.69,73482.3,5.71,-35.95,-35.71,0,*4F
1504793195.49,9324,16.69,73482.3,5.69,-35.53,-35.17,0,*4B
1504793196.7,9325,16.69,73486.3,5.63,-34.41,-34.01,0,*44
1504793197.92,9326,16.69,73484.8,5.67,-34.19,-33.67,0,*49
1504793199.14,9327,16.69,73486.0,5.67,-34.19,-33.83,0,*42
1504793200.36,9328,16.69,73484.5,5.67,-36.37,-36.01,0,*4C
1504793201.57,9329,16.69,73484.5,5.63,-36.67,-36.49,0,*40
1504793202.81,9330,16.69,73486.8,5.61,-37.39,-37.27,0,*49
1504793204.05,9331,16.69,73486.0,5.57,-37.63,-37.33,0,*47
1504793205.29,9332,16.69,73486.0,5.57,-37.87,-37.69,0,*41
1504793206.54,9333,16.69,73488.3,5.51,-38.17,-37.99,0,*4F
1504793207.79,9334,16.69,73484.5,5.45,-37.21,-36.91,0,*4E
1504793209.0,9335,16.69,73486.0,5.45,-35.41,-35.01,0,*41
1504793210.24,9336,16.69,73490.8,5.43,-34.35,-34.13,0,*44
1504793211.51,9337,16.69,73488.0,5.43,-34.19,-33.77,0,*4E
1504793212.73,9338,16.69,73484.5,5.49,-34.95,-34.47,0,*4B
1504793213.92,9339,16.69,73484.5,5.49,-34.77,-34.41,0,*40
1504793215.11,9340,16.69,73488.3,5.45,-34.77,-34.41,0,*42
1504793216.32,9341,16.69,73488.3,5.45,-35.59,-35.41,0,*4F
1504793217.54,9342,16.69,73486.0,5.45,-36.13,-35.77,0,*44
1504793218.76,9343,16.69,73480.8,5.45,-35.71,-35.41,0,*47
1504793219.98,9344,16.69,73484.3,5.41,-36.43,-36.25,0,*47
1504793221.22,9345,16.69,73484.3,5.41,-36.61,-36.37,0,*45
1504793222.46,9346,16.69,73486.0,5.41,-36.49,-36.37,0,*4C
1504793223.66,9347,16.69,73486.3,5.37,-37.03,-36.73,0,*43
1504793224.85,9348,16.69,73486.3,5.37,-37.03,-36.85,0,*45
1504793226.04,9349,16.69,73484.3,5.37,-36.43,-36.07,0,*4B
1504793227.27,9350,16.69,73484.8,5.35,-36.01,-35.77,0,*43
1504793228.5,9351,16.69,73484.0,5.35,-36.01,-35.77,0,*42
1504793229.7,9352,16.69,73480.0,5.33,-36.31,-36.01,0,*46
1504793230.98,9353,16.69,73482.0,5.31,-36.61,-36.25,0,*46
1504793232.24,9354,16.69,73478.3,5.31,-36.37,-36.37,0,*41
1504793233.51,9355,16.69,73480.0,5.31,-36.61,-36.25,0,*40
1504793234.7,9356,16.69,73480.3,5.29,-37.03,-36.85,0,*45
1504793235.89,9357,16.69,73478.0,5.29,-37.33,-36.97,0,*44
1504793237.11,9358,16.69,73478.8,5.23,-37.09,-36.73,0,*42
1504793238.36,9359,16.69,73478.3,5.23,-37.63,-37.51,0,*4E
1504793239.59,9360,16.69,73478.8,5.19,-38.49,-38.35,0,*47
1504793240.78,9361,16.69,73480.5,5.15,-38.35,-38.05,0,*42
1504793242.0,9362,16.69,73480.5,5.15,-37.27,-37.09,0,*4E
1504793243.22,9363,16.69,73480.8,5.15,-37.09,-36.85,0,*46
1504793244.46,9364,16.69,73474.0,5.15,-36.49,-36.25,0,*4E
1504793245.67,9365,16.69,73476.0,5.11,-36.85,-36.55,0,*4C
1504793246.91,9366,16.69,73474.8,5.11,-36.37,-36.13,0,*44
1504793248.13,9367,16.69,73480.5,5.11,-36.91,-36.67,0,*4A
1504793249.4,9368,16.69,73480.0,5.09,-37.39,-37.21,0,*4C
1504793250.62,9369,16.69,73482.3,5.07,-37.03,-36.91,0,*40
1504793251.87,9370,16.69,73480.3,5.09,-35.83,-35.59,0,*4B
1504793253.09,9371,16.69,73482.3,5.07,-37.03,-36.61,0,*46
1504793254.34,9372,16.69,73480.0,5.07,-37.51,-37.21,0,*47
1504793255.59,9373,16.69,73478.8,5.03,-37.21,-37.09,0,*4F
1504793256.8,9374,16.69,73480.8,5.01,-37.57,-37.45,0,*43
1504793258.02,9375,16.69,73480.3,5.01,-38.73,-38.55,0,*45
1504793259.24,9376,16.69,73480.8,4.99,-37.69,-37.45,0,*4C
1504793260.48,9377,16.69,73480.3,4.97,-36.97,-36.79,0,*4D
1504793261.68,9378,16.69,73478.0,4.95,-36.55,-36.19,0,*48
1504793262.93,9379,16.69,73472.8,4.95,-36.91,-36.61,0,*4E
1504793264.18,9380,16.69,73474.3,4.95,-37.39,-37.21,0,*4E
1504793265.43,9381,16.69,73476.5,4.93,-37.03,-36.79,0,*4C
1504793266.66,9382,16.69,73478.3,4.93,-37.15,-36.97,0,*48
1504793267.93,9383,16.69,73474.3,4.93,-36.79,-36.49,0,*41
1504793269.17,9384,16.69,73468.3,4.89,-37.21,-36.91,0,*44
1504793270.36,9385,16.69,73468.0,4.89,-37.45,-37.27,0,*4B
1504793271.58,9386,16.69,73466.0,4.89,-38.17,-37.99,0,*45
1504793272.79,9387,16.69,73474.3,4.85,-38.91,-38.73,0,*4D
1504793274.05,9388,16.69,73472.5,4.85,-38.49,-38.29,0,*48
1504793275.32,9389,16.69,73464.8,4.79,-38.91,-38.49,0,*49
1504793276.57,9390,16.69,73468.3,4.77,-39.15,-39.03,0,*4D
1504793277.85,9391,16.69,73472.8,4.75,-38.49,-38.29,0,*4F
1504793279.07,9392,16.69,73470.3,4.73,-39.65,-39.59,0,*43
1504793280.35,9393,16.69,73468.0,4.67,-42.95,-42.83,0,*4F
1504793281.57,9394,16.69,73468.0,4.63,-44.07,-44.07,0,*4B
1504793282.81,9395,16.69,73468.5,4.57,-43.55,-43.29,0,*46
1504793284.02,9396,16.69,73470.5,4.51,-40.35,-40.65,0,*4D
1504793285.24,9397,16.69,73468.5,4.47,-39.85,-39.47,0,*40
1504793286.47,9398,16.69,73468.8,4.47,-38.17,-37.87,0,*47
1504793287.71,9399,16.69,73468.0,4.45,-36.91,-36.61,0,*4D
1504793288.96,9400,16.69,73470.3,4.47,-35.29,-35.07,0,*4B
1504793290.18,9401,16.69,73462.8,4.47,-35.71,-35.29,0,*4B
1504793291.41,9402,16.69,73470.5,4.49,-35.89,-35.41,0,*4F
1504793292.62,9403,16.69,73468.3,4.51,-34.71,-34.25,0,*42
1504793293.89,9404,16.69,73474.3,4.51,-34.83,-34.35,0,*49
1504793295.13,9405,16.69,73470.5,4.51,-35.41,-35.01,0,*41
1504793296.35,9406,16.69,73468.5,4.55,-35.01,-34.59,0,*4E
1504793297.57,9407,16.69,73472.3,4.55,-33.55,-33.15,0,*47
1504793298.82,9408,16.69,73468.8,4.55,-33.03,-32.75,0,*4C
1504793300.04,9409,16.69,73468.5,4.61,-32.85,-32.35,0,*41
1504793301.29,9410,16.69,73474.3,4.63,-32.45,-32.01,0,*40
1504793302.48,9411,16.69,73474.0,4.65,-32.91,-32.51,0,*4B
1504793303.71,9412,16.69,73474.0,4.69,-33.83,-33.43,0,*44
1504793304.96,9413,16.69,73470.0,4.69,-33.77,-33.27,0,*4C
1504793306.18,9414,16.69,73470.8,4.73,-33.09,-32.51,0,*49
1504793307.38,9415,16.69,73468.8,4.73,-32.91,-32.51,0,*48
1504793308.6,9416,16.69,73474.8,4.75,-32.91,-32.51,0,*4D
1504793309.83,9417,16.69,73472.5,4.77,-32.39,-31.95,0,*47